This demonstration page uses our WeatherBlox Daily Observations layout. Learn more.

39.92423, -83.80882

Hourly Observations for June 28, 2016

Temp ( °F °C ) Dew Point ( °F °C ) Humidity (%) Winds ( mph kmh ) Pressure ( in mb ) Visibility ( mi km ) Precip ( " mm )
12:56 am 00:56 Clear 76 24.4 65 18.3 69 69 W 8 13 29.99 1016 10 16.0934 0 0
1:56 am 01:56 Clear 74 23.3 66 18.8 76 76 W 8 13 29.99 1016 10 16.0934 0 0
2:56 am 02:56 Clear 71 21.6 65 18.3 82 82 NW 5 7 29.99 1016 10 16.0934 0 0
3:56 am 03:56 Clear 70 21.1 63 17.2 79 79 NW 8 13 29.99 1016 10 16.0934 0 0
4:56 am 04:56 Clear 67 19.4 63 17.2 87 87 NW 7 11 30.01 1016 10 16.0934 0 0
5:56 am 05:56 Clear 65 18.3 62 16.6 90 90 NNW 5 7 30.02 1017 10 16.0934 0 0
6:56 am 06:56 Sunny 65 18.3 62 16.6 90 90 WNW 5 7 30.03 1017 10 16.0934 0 0
7:56 am 07:56 Sunny 69 20.5 63 17.2 81 81 NW 6 9 30.04 1017 10 16.0934 0 0
8:56 am 08:56 Sunny 72 22.2 62 16.6 71 71 WNW 7 11 30.04 1017 10 16.0934 0 0
9:56 am 09:56 Sunny 75 23.8 61 16.1 62 62 W 10 17 30.06 1018 10 16.0934 0 0
10:56 am 10:56 Mostly Sunny 77 25 59 15 54 54 W 9 15 30.05 1018 10 16.0934 0 0
11:56 am 11:56 Mostly Sunny 78 25.5 58 14.4 50 50 W 8 13 30.05 1018 10 16.0934 0 0
12:56 pm 12:56 Mostly Sunny 80 26.6 58 14.4 47 47 WNW 12 19 30.05 1018 10 16.0934 0 0
1:56 pm 13:56 Mostly Sunny 80 26.6 58 14.4 47 47 WNW 15 24 30.04 1017 10 16.0934 0 0
2:56 pm 14:56 Partly Cloudy 80 26.6 59 15 49 49 W 13 20 30.03 1017 10 16.0934 0 0
3:56 pm 15:56 Mostly Sunny 81 27.2 58 14.4 45 45 WNW 14 22 30.03 1017 10 16.0934 0 0
4:56 pm 16:56 Sunny 81 27.2 58 14.4 45 45 NW 12 19 30.02 1017 10 16.0934 0 0
5:56 pm 17:56 Mostly Sunny 81 27.2 57 13.8 44 44 WNW 16 26 30.02 1017 10 16.0934 0 0
6:56 pm 18:56 Sunny 77 25 58 14.4 52 52 NW 15 24 30.02 1017 10 16.0934 0 0
7:56 pm 19:56 Mostly Sunny 74 23.3 56 13.3 54 54 NW 15 24 30.03 1017 10 16.0934 0 0
8:56 pm 20:56 Sunny 69 20.5 56 13.3 63 63 NNW 10 17 30.04 1017 10 16.0934 0 0
9:56 pm 21:56 Clear 64 17.7 55 12.7 73 73 NNW 13 20 30.05 1018 10 16.0934 0 0
10:56 pm 22:56 Clear 62 16.6 54 12.2 75 75 NNW 7 11 30.06 1018 10 16.0934 0 0
11:56 pm 23:56 Clear 60 15.5 54 12.2 81 81 NNW 5 7 30.07 1018 10 16.0934 0 0

Powered by AerisWeather